This is the latest recevied weather packets stored in our database for station/object F5PQL-4. If no packets are shown the sender has not sent any weather packets the latest 10 day(s).
| Time | Temp. | Humidity | Pressure | Rain* | Wind** | Luminosity | Snow |
|---|---|---|---|---|---|---|---|
| 1778163695 | 26.11° C | 30% | 1014 hPa | - | - | - | - |
| 1778162795 | 27.22° C | 29% | 1014.1 hPa | - | - | - | - |
| 1778161895 | 24.44° C | 34% | 1014.4 hPa | - | - | - | - |
| 1778160995 | 25.56° C | 32% | 1014.5 hPa | - | - | - | - |
| 1778160095 | 28.89° C | 27% | 1014.5 hPa | - | - | - | - |
| 1778160095 | 28.89° C | 27% | 1014.5 hPa | - | - | - | - |
| 1778160094 | 28.89° C | 27% | 1014.5 hPa | - | - | - | - |
| 1778159194 | 28.89° C | 26% | 1014.6 hPa | - | - | - | - |
| 1778158294 | 27.22° C | 29% | 1014.9 hPa | - | - | - | - |
| 1778157394 | 30.56° C | 25% | 1014.7 hPa | - | - | - | - |
| 1778156494 | 25° C | 31% | 1015 hPa | - | - | - | - |
| 1778155594 | 30° C | 25% | 1014.9 hPa | - | - | - | - |
| 1778154693 | 33.89° C | 21% | 1014.9 hPa | - | - | - | - |
| 1778153793 | 36.67° C | 20% | 1015 hPa | - | - | - | - |
| 1778152892 | 34.44° C | 22% | 1015.3 hPa | - | - | - | - |
| 1778151993 | 31.67° C | 25% | 1015.3 hPa | - | - | - | - |
| 1778151992 | 31.67° C | 25% | 1015.3 hPa | - | - | - | - |
| 1778151092 | 27.22° C | 31% | 1015.6 hPa | - | - | - | - |
| 1778150193 | 26.11° C | 34% | 1015.6 hPa | - | - | - | - |
| 1778150192 | 26.11° C | 34% | 1015.6 hPa | - | - | - | - |
| 1778149293 | 26.11° C | 34% | 1015.6 hPa | - | - | - | - |
| 1778149292 | 26.11° C | 34% | 1015.6 hPa | - | - | - | - |
| 1778148392 | 23.89° C | 37% | 1015.8 hPa | - | - | - | - |
| 1778147492 | 21.67° C | 42% | 1015.9 hPa | - | - | - | - |
| 1778146592 | 22.78° C | 39% | 1015.9 hPa | - | - | - | - |
* Rain since midnight (hover to see other rain measurements)
** Current wind speed in m/s (hover to see current wind gust speed)